Weather History for KESF - November, 2011

Change the Weather History Date:

Saturday, November 26, 2011

  Actual Average Record
Temperature  
Mean Temperature 64 °F -  
Max Temperature 75 °F 69 °F 82 °F (1965)
Min Temperature 53 °F 46 °F 28 °F (2010)
Degree Days  
Heating Degree Days 1    
Growing Degree Days 14 (Base 50)    
Moisture  
Dew Point 62 °F    
Average Humidity 93    
Maximum Humidity 100    
Minimum Humidity 76    
Precipitation  
Precipitation 1.59 in - - ()
Sea Level Pressure  
Sea Level Pressure 29.94 in    
Wind  
Wind Speed 4 mph (SSW)    
Max Wind Speed 12 mph    
Max Gust Speed 28 mph    
Visibility 7 miles    
Events Rain , Thunderstorm    
Averages and records for this station are not official NWS values.
T = Trace of Precipitation, MM = Missing Value Source: NWS Daily Summary

Daily Weather History Graph

Daily Weather History Graph

Search for Another Location

Airport or City:

Trip Planner

Search our weather history database for the weather conditions in past years. The results will help you decide how hot, cold, wet, or windy it might be!

Date:

Astronomy

Nov. 26, 2011 Rise Set
Actual Time 6:46 AM CST 5:06 PM CST
Civil Twilight 6:19 AM CST 5:32 PM CST
Nautical Twilight 5:50 AM CST 6:02 PM CST
Astronomical Twilight 5:20 AM CST 6:31 PM CST
Moon 8:13 AM CST (11/26) 6:41 PM CST (11/26)
Length of Visible Light 11h 12m
Length of Day
10h 20m
Waxing Crescent, 3% of the Moon is Illuminated
Nov 26
Waxing Crescent
Dec 2
First Quarter
Dec 10
Full
Dec 17
Last Quarter
Dec 24
New

Hourly Weather History & Observations

Time (CST) Temp. Dew Point Humidity Pressure Visibility Wind Dir Wind Speed Gust Speed Precip Events Conditions
12:53 AM 64.0 °F 61.0 °F 90% 30.02 in 10.0 mi Calm Calm - N/A   Overcast
1:02 AM 64.4 °F 60.8 °F 88% 30.03 in 10.0 mi SW 3.5 mph - N/A   Overcast
1:21 AM 62.6 °F 60.8 °F 94% 30.02 in 10.0 mi Calm Calm - N/A   Mostly Cloudy
1:53 AM 62.1 °F 60.1 °F 93% 30.01 in 10.0 mi Calm Calm - N/A   Mostly Cloudy
2:53 AM 61.0 °F 59.0 °F 93% 30.01 in 9.0 mi Calm Calm - N/A   Mostly Cloudy
3:53 AM 61.0 °F 60.1 °F 97% 29.99 in 9.0 mi East 4.6 mph - N/A   Clear
4:53 AM 62.1 °F 60.1 °F 93% 29.98 in 9.0 mi ESE 3.5 mph - N/A   Mostly Cloudy
5:48 AM 62.6 °F 60.8 °F 94% 29.97 in 10.0 mi ESE 5.8 mph - N/A   Overcast
5:53 AM 62.1 °F 61.0 °F 96% 29.97 in 10.0 mi ESE 5.8 mph - N/A   Overcast
6:04 AM 62.6 °F 60.8 °F 94% 29.97 in 10.0 mi SE 5.8 mph - N/A   Overcast
6:31 AM 62.6 °F 60.8 °F 94% 29.98 in 10.0 mi SE 4.6 mph - N/A   Overcast
6:53 AM 62.1 °F 60.1 °F 93% 29.98 in 8.0 mi SE 3.5 mph - N/A   Mostly Cloudy
7:53 AM 64.9 °F 63.0 °F 93% 29.99 in 10.0 mi SE 3.5 mph - N/A   Scattered Clouds
8:01 AM 64.4 °F 62.6 °F 94% 29.99 in 10.0 mi Calm Calm - N/A   Mostly Cloudy
8:53 AM 66.0 °F 64.0 °F 93% 29.99 in 10.0 mi SE 5.8 mph - N/A   Overcast
9:53 AM 71.1 °F 64.9 °F 81% 29.98 in 10.0 mi SSE 9.2 mph - N/A   Overcast
10:53 AM 72.0 °F 66.0 °F 81% 29.96 in 10.0 mi South 9.2 mph - N/A   Overcast
11:19 AM 73.4 °F 66.2 °F 78% 29.96 in 10.0 mi South 8.1 mph - N/A   Overcast
11:53 AM 73.0 °F 66.0 °F 79% 29.94 in 10.0 mi South 4.6 mph 17.3 mph N/A   Overcast
12:53 PM 75.0 °F 66.9 °F 76% 29.89 in 10.0 mi SSE 11.5 mph 21.9 mph N/A   Overcast
1:14 PM 71.6 °F 68.0 °F 88% 29.88 in 1.2 mi SSE 9.2 mph - 0.15 in Rain Heavy Rain
1:16 PM 69.8 °F 68.0 °F 94% 29.88 in 0.8 mi South 6.9 mph - 0.24 in Rain Heavy Rain
1:23 PM 69.8 °F 66.2 °F 88% 29.88 in 1.0 mi South 5.8 mph - 0.24 in Rain Light Rain
1:32 PM 69.8 °F 68.0 °F 94% 29.88 in 10.0 mi South 3.5 mph - 0.24 in Rain Light Rain
1:53 PM 71.1 °F 69.1 °F 93% 29.86 in 10.0 mi East 4.6 mph - 0.25 in   Overcast
2:43 PM 71.6 °F 69.8 °F 94% 29.85 in 7.0 mi SE 5.8 mph - 0.00 in Rain Light Rain
2:53 PM 71.1 °F 69.1 °F 93% 29.84 in 1.2 mi SSE 10.4 mph - 0.13 in Rain Heavy Rain
3:08 PM 71.6 °F 68.0 °F 88% 29.84 in 0.8 mi Variable 4.6 mph - 0.26 in Rain Heavy Rain
3:18 PM 71.6 °F 69.8 °F 94% 29.84 in 2.0 mi Calm Calm - 0.26 in Rain Light Rain
3:25 PM 71.6 °F 69.8 °F 94% 29.85 in 10.0 mi Calm Calm - 0.27 in Rain Light Rain
3:36 PM 71.6 °F 69.8 °F 94% 29.84 in 10.0 mi Calm Calm - N/A   Overcast
3:53 PM 64.9 °F 63.0 °F 93% 29.84 in 4.0 mi Variable 6.9 mph 25.3 mph 0.29 in Rain Heavy Rain
4:01 PM 64.4 °F 62.6 °F 94% 29.87 in 1.5 mi West 9.2 mph 27.6 mph 0.11 in Rain Heavy Rain
4:08 PM 62.6 °F 62.6 °F 100% 29.87 in 0.8 mi NNW 8.1 mph - 0.18 in Rain , Thunderstorm Heavy Thunderstorms and Rain
4:14 PM 62.6 °F 60.8 °F 94% 29.87 in 1.2 mi NNW 8.1 mph - 0.26 in Rain , Thunderstorm Heavy Thunderstorms and Rain
4:18 PM 62.6 °F 60.8 °F 94% 29.89 in 1.2 mi NNW 9.2 mph 17.3 mph 0.31 in Rain , Thunderstorm Heavy Rain
4:25 PM 62.6 °F 60.8 °F 94% 29.89 in 1.2 mi WNW 11.5 mph 18.4 mph 0.39 in Rain , Thunderstorm Heavy Thunderstorms and Rain
4:45 PM 60.8 °F 60.8 °F 100% 29.90 in 1.2 mi NW 10.4 mph 19.6 mph 0.59 in Rain Heavy Rain
4:53 PM 61.0 °F 59.0 °F 93% 29.91 in 1.2 mi Variable 4.6 mph 18.4 mph 0.65 in Rain Heavy Rain
4:59 PM 60.8 °F 59.0 °F 94% 29.92 in 2.0 mi WNW 5.8 mph - 0.02 in Rain , Thunderstorm Rain
5:08 PM 60.8 °F 59.0 °F 94% 29.92 in 8.0 mi WNW 5.8 mph - 0.02 in Rain , Thunderstorm Light Rain
5:16 PM 60.8 °F 59.0 °F 94% 29.92 in 10.0 mi WNW 4.6 mph - 0.02 in Rain Light Rain
5:53 PM 60.1 °F 59.0 °F 96% 29.93 in 5.0 mi Calm Calm - 0.07 in Rain Rain
6:53 PM 59.0 °F 57.2 °F 94% 29.93 in 6.0 mi Calm Calm - N/A Rain Light Rain
7:53 PM 57.9 °F 57.0 °F 97% 29.92 in 10.0 mi Calm Calm - 0.03 in   Overcast
8:32 PM 57.2 °F 57.2 °F 100% 29.95 in 4.0 mi Calm Calm - 0.05 in Rain Rain
8:39 PM 57.2 °F 57.2 °F 100% 29.95 in 3.0 mi Calm Calm - 0.09 in Rain Heavy Rain
8:53 PM 57.9 °F 57.0 °F 97% 29.96 in 3.0 mi SW 3.5 mph - 0.14 in Rain Rain
9:20 PM 57.2 °F 57.2 °F 100% 29.97 in 8.0 mi WSW 4.6 mph - 0.04 in Rain Light Rain
9:53 PM 57.2 °F 57.2 °F 100% 29.99 in 10.0 mi WSW 4.6 mph - N/A Rain Light Rain
10:07 PM 57.2 °F 57.2 °F 100% 29.99 in 6.0 mi SW 4.6 mph - N/A Rain Light Rain
10:16 PM 57.2 °F 57.2 °F 100% 30.00 in 5.0 mi WSW 4.6 mph - N/A   Overcast
10:39 PM 57.2 °F 57.2 °F 100% 29.99 in 6.0 mi Calm Calm - 0.01 in Rain Light Rain
10:53 PM 57.9 °F 57.0 °F 97% 29.99 in 9.0 mi West 3.5 mph - 0.01 in Rain Light Rain
11:20 PM 55.4 °F 53.6 °F 94% 29.99 in 10.0 mi WNW 10.4 mph 17.3 mph 0.02 in Rain Light Rain
11:48 PM 53.6 °F 51.8 °F 94% 30.00 in 10.0 mi WNW 8.1 mph 19.6 mph 0.02 in   Overcast
11:53 PM 54.0 °F 52.0 °F 93% 29.99 in 10.0 mi NW 11.5 mph 18.4 mph 0.02 in   Overcast